Regional Weather Roundup
Issued by NWS

Home | Current Version | Previous Version | Graphics & Text | Print | Product List | Glossary On
Versions: 1 2 3 4 5 6 7 8 9 10 11 12 13 14 15 16 17 18 19 20 21 22 23 24 25 26 27 28 29 30 31 32 33 34 35 36 37 38 39 40 41 42 43 44 45 46 47 48 49 50
604
ASUS45 KCYS 261910
RWRWY

WYOMING REGIONAL WEATHER ROUNDUP
NATIONAL WEATHER SERVICE CHEYENNE WY
100 PM MDT TUE JUL 26 2016

NOTE:  "FAIR" INDICATES FEW OR NO CLOUDS BELOW 12,000 FEET
WITH NO SIGNIFICANT WEATHER AND/OR OBSTRUCTIONS TO VISIBILITY.

WYZ001-262000-
YELLOWSTONE NATIONAL PARK

CITY           SKY/WX    TMP DP  RH WIND       PRES   REMARKS
LK YELLOWSTONE   N/A     70  43  37 VRB5      30.37F
W YELLOWSTONE  NOT AVBL

$$
WYZ002>013-054>058-071-098>099-262000-
NORTHERN WYOMING

CITY           SKY/WX    TMP DP  RH WIND       PRES   REMARKS
JACKSON        SUNNY     82  30  15 CALM      30.24F
CODY           FAIR      81  46  30 NE12G18   30.16F
GREYBULL       FAIR      87  44  22 VRB5      30.06F
WORLAND        FAIR      85  44  23 VRB5      30.08F
SHERIDAN       FAIR      88  45  22 VRB7      30.09S
BUFFALO        FAIR      84  41  21 VRB7      30.16F
GILLETTE       FAIR      86  48  26 N12       30.10F
HULETT         FAIR      86  45  23 NE6       30.10S
NEWCASTLE      FAIR      86  45  23 S10G20    30.09S

$$
WYZ014>020-022>026-101>103-262000-
CENTRAL WYOMING

CITY           SKY/WX    TMP DP  RH WIND       PRES   REMARKS
BIG PINEY      FAIR      86  26  11 SW7       30.28F
PINEDALE       FAIR      84  25  11 NW12      30.29F
DUBOIS         FAIR      84  19   9 N21       30.26F
LANDER         FAIR      83  41  22 CALM      30.15F
RIVERTON       FAIR      85  40  20 VRB5      30.16F
CASPER         FAIR      83  46  27 CALM      30.16F
DOUGLAS          N/A    N/A N/A N/A MISG      30.13F

$$
WYZ021-027>030-104>119-262000-
SOUTHERN WYOMING

CITY           SKY/WX    TMP DP  RH WIND       PRES   REMARKS
EVANSTON       FAIR      88  31  13 SW18G24   30.28F
KEMMERER         N/A     86  27  11 W7G21     30.30F
FORT BRIDGER   FAIR      89  27  11 S8G21     30.30F
ROCK SPRINGS   FAIR      88  27  11 W15G21    30.27F
DIXON          FAIR      89  31  12 SW7       30.27F
RAWLINS        FAIR      90  25   9 SW17G23   30.26F
SARATOGA       FAIR      86  30  13 W12G18    30.29S
LARAMIE        FAIR      86  27  11 N8G17     30.28F
CHEYENNE       FAIR      89  47  23 SE13      30.19F
TORRINGTON     FAIR      90  56  31 VRB3      30.04F
PINE BLUFFS    FAIR      88  46  23 SE5       30.14S

$$




USA.gov is the U.S. government's official web portal to all federal, state and local government web resources and services.